Details for Ryanair at LIMC




Go Back


Latest METAR
Local Time

LIMC 252150Z 01004KT 340V050 CAVOK 19/15 Q1017 NOSIG

26/05/2018, 00:14:19

Description
Results
Ryanair Logo
Number of Pilots based at LIMC
0 Pilots Based here
Number of Ryanair Flights Departed from LIMC
3 Flights Departed
Number of Ryanair Flights Arrived at LIMC
3 Flights Arrived
Number of Ryanair Schedules Departing from LIMC
44 Schedules
Number of Ryanair Schedules Arriving at LIMC
44 Schedules
Number of Ryanair Schedules Departing from LIMC availible today
18 Schedules Today
Number of Ryanair Schedules Arriving at LIMC availible today
18 Schedules Today
Average Landing Rate at LIMC
-244 fpm
Ryanair Average Landing Rate at LIMC
-143 fpm
Total Fuel Purchased at LIMC by Ryanair
14,359.82 kgs / 31,657.66 lbs

Pilots Based at LIMC


Pilot ID
Pilot Name
Pilot Rank
No. of Flights
No. of Flying Hours
There are no pilots assigned to this hub!   Will you be the first?
Content